[[{"header":{"parameterUnit":"m.s-1","parameterCategory":1,"la1":30.2991,"la2":30.254,"lo1":-89.0895,"lo2":-89.0444,"dy":0.0017,"dx":0.0017,"nx":28,"ny":28,"refTime":"2025-08-20T21:00:00:Z","depth":0,"parameterNumber":2,"parameterNumberName":"U-component_of_WINDS"},"data":[0,0,0,0,0,0,0,0,0,0,0,0,0,0,0,0,0,0,0,0,0,0,0,0,0,0,0,0,0,0,0,0,0,0,0,0,0,0,0,0,0,0,0,0,0,0,0,0,0,0,0,0,0,0,0,0,0,0,3.1465,3.1466,0,3.1574,3.1575,3.1576,3.1542,3.154,3.1537,3.1535,3.1646,3.1651,3.1656,0,0,0,0,0,0,0,0,0,0,0,0,0,3.1227,3.1231,3.1465,3.1467,3.1468,3.1573,3.1575,3.1576,3.1542,3.1539,3.1537,3.1534,3.1644,3.165,3.1656,0,0,0,0,0,0,0,0,0,0,0,0,0,3.1332,3.1233,3.1465,3.1464,3.1465,3.1573,3.1575,3.1577,3.1543,3.1539,3.1536,3.1533,3.1642,3.165,3.1657,3.1774,0,0,3.1681,3.1684,0,0,0,0,0,0,0,0,3.1326,3.1341,3.1462,3.1464,3.1465,3.1541,3.1532,3.1643,3.1544,3.1513,3.1535,3.1531,3.1614,3.1623,3.1651,3.1779,3.1784,3.1681,3.1686,3.1689,3.1691,0,0,0,0,0,0,0,3.1319,3.1336,3.1508,3.1464,3.1466,3.1457,3.1468,3.1552,3.1581,3.1516,3.1513,3.1527,3.1614,3.1644,3.1654,3.1785,3.1681,3.1688,3.1693,3.1696,3.2011,3.2014,0,0,0,0,0,0,3.1311,3.133,3.1505,3.1511,3.1386,3.1464,3.1477,3.152,3.158,3.1586,3.1529,3.1525,3.1633,3.1645,3.1657,3.1795,3.1689,3.1696,3.1701,3.2007,3.2011,3.2015,0,0,0,0,0,0,3.1306,3.1327,3.15,3.142,3.1442,3.1472,3.1521,3.1524,3.1554,3.1591,3.1596,3.1555,3.163,3.1647,3.1744,3.1799,3.17,3.1707,3.2002,3.2008,3.2013,3.2073,0,0,0,0,0,0,3.1299,3.1325,3.137,3.1422,3.1446,3.1586,3.1524,3.1528,3.1567,3.1562,3.1616,3.1622,3.1629,3.1733,3.1752,3.1807,3.1713,3.1998,3.2005,3.2012,3.2067,3.208,3.2092,0,0,0,0,0,3.1291,3.1384,3.1373,3.1394,3.1503,3.1589,3.1603,3.1609,3.1572,3.1617,3.164,3.162,3.179,3.1743,3.1764,3.1823,3.1994,3.2003,3.2011,3.2061,3.2078,3.2092,0,0,0,0,0,0,3.1338,3.139,3.1379,3.1491,3.1536,3.1583,3.164,3.1627,3.1684,3.1676,3.1681,3.1694,3.1793,3.1818,3.1765,3.1937,3.1887,3.19,3.1917,3.1933,3.1946,3.1937,3.1719,0,0,0,0,0,3.1362,3.1428,3.147,3.1564,3.1587,3.161,3.1648,3.1648,3.1695,3.1714,3.1745,3.179,3.1853,3.1895,3.1956,3.2071,3.208,3.2121,3.2134,3.2144,3.2155,3.2214,3.2232,3.2043,3.2043,3.2043,0,0,3.1411,3.1448,3.1489,3.1575,3.1609,3.1676,3.1626,3.17,3.1749,3.1725,3.1818,3.1843,3.1894,3.2,3.2048,3.2023,3.2209,3.2155,3.2163,3.2168,3.2225,3.2243,3.2258,3.2049,3.2048,3.2047,0,0,3.1534,3.157,3.1651,3.1686,3.1739,3.1754,3.1773,3.1823,3.1837,3.1931,3.1913,3.1972,3.2082,3.2119,3.2152,3.2287,3.227,3.2307,3.2373,3.2431,3.2445,3.2458,3.2504,3.2521,3.2318,3.2318,3.2318,0,3.1588,3.1689,3.1694,3.1769,3.1806,3.1787,3.1868,3.1903,3.1973,3.1999,3.1971,3.2106,3.214,3.2253,3.2285,3.2314,3.2335,3.23,3.2443,3.2456,3.2468,3.2512,3.2529,3.2322,3.2321,3.2321,3.2321,0,3.1751,3.1821,3.1881,3.1948,3.1992,3.207,3.2086,3.213,3.2127,3.2144,3.2238,3.2278,3.2345,3.2372,3.2371,3.2484,3.2467,3.2441,3.239,3.249,3.2531,3.2548,3.2327,3.2326,3.2325,3.2324,0,0,3.1907,3.1975,3.1996,3.2026,3.2082,3.2136,3.2213,3.2278,3.2314,3.2363,3.2426,3.2519,3.2494,3.2532,3.2534,3.2585,3.2686,3.2553,3.2554,3.2574,3.2811,3.2828,3.2847,3.2676,3.2679,3.2682,3.2805,0,3.2032,3.2166,3.2172,3.2293,3.2357,3.2339,3.2405,3.2447,3.2464,3.252,3.254,3.2604,3.2569,3.2591,3.2641,3.2663,3.2733,3.2655,3.2732,3.2735,3.2717,3.2869,3.2888,3.3002,3.2822,3.2824,3.2827,0,3.2196,3.2249,3.2376,3.2422,3.2449,3.2508,3.2567,3.2621,3.2667,3.2676,3.2717,3.2712,3.2788,3.2736,3.284,3.2787,3.2819,3.2835,3.2839,3.2845,3.2785,3.2876,3.3039,3.3055,3.2852,3.285,3.2848,0,3.2293,3.2397,3.2485,3.2511,3.2567,3.2609,3.2634,3.2677,3.2715,3.2767,3.2791,3.2851,3.2884,3.293,3.294,3.2902,3.3044,3.2993,3.3052,3.3051,3.3081,3.3078,3.3249,3.3106,3.3106,3.3106,3.3105,0,3.2431,3.2509,3.2529,3.2583,3.2669,3.2676,3.2761,3.2783,3.2821,3.2878,3.2868,3.2922,3.2933,3.2989,3.2998,3.3082,3.3097,3.3106,3.3106,3.3105,3.3104,3.3124,3.3116,3.311,3.3109,3.3108,3.3108,0,3.2553,3.257,3.2665,3.271,3.2723,3.2784,3.2822,3.2873,3.289,3.2962,3.298,3.3005,3.307,3.3086,3.3164,3.317,3.3268,3.3262,3.3252,3.325,3.3307,3.33,3.3495,3.352,3.3364,3.3365,3.3366,0,3.2639,3.2698,3.2748,3.2786,3.2813,3.2874,3.2912,3.2921,3.2961,3.3016,3.3061,3.3125,3.3176,3.3281,3.3306,3.3365,3.336,3.3424,3.3368,3.3364,3.3357,3.3352,3.3357,3.3433,3.3435,3.3436,3.3438,0,3.2788,3.2793,3.2848,3.2906,3.2952,3.2999,3.3043,3.3074,3.3088,3.3134,3.32,3.324,3.3319,3.3382,3.3441,3.3466,3.3454,3.3455,3.3471,3.3469,3.3459,3.3462,3.3277,3.345,3.3449,3.3448,3.3447,3.3447,3.2892,3.2943,3.2986,3.3047,3.3081,3.3122,3.3172,3.3194,3.3249,3.3313,3.3315,3.3387,3.343,3.3508,3.3536,3.3592,3.3572,3.3596,3.3602,3.3607,3.361,3.3452,3.3603,3.3603,3.3602,3.3602,3.3602,0,3.3038,3.3064,3.3121,3.3182,3.323,3.3215,3.3263,3.3304,3.3366,3.3408,3.3458,3.3533,3.3593,3.3623,3.3683,3.3721,3.3717,3.3736,3.3732,3.3737,3.3626,3.3605,3.3738,3.3738,3.3738,3.3738,3.3738,3.3738,3.3119,3.3203,3.3213,3.3313,3.3339,3.3408,3.3436,3.3474,3.3506,3.359,3.364,3.3659,3.3695,3.3756,3.3811,3.3818,3.3839,3.3861,3.3865,3.376,3.3746,3.3732,3.3712,3.3866,3.3866,3.3971,3.3972,3.3972]},{"header":{"parameterUnit":"m.s-1","parameterCategory":1,"la1":30.2991,"la2":30.254,"lo1":-89.0895,"lo2":-89.0444,"dy":0.0017,"dx":0.0017,"nx":28,"ny":28,"refTime":"2025-08-20T21:00:00:Z","depth":0,"parameterNumber":3,"parameterNumberName":"V-component_of_WINDS"},"data":[0,0,0,0,0,0,0,0,0,0,0,0,0,0,0,0,0,0,0,0,0,0,0,0,0,0,0,0,0,0,0,0,0,0,0,0,0,0,0,0,0,0,0,0,0,0,0,0,0,0,0,0,0,0,0,0,0,0,0.9194,0.9194,0,0.9195,0.9195,0.9195,0.9142,0.914,0.9139,0.9138,0.914,0.9141,0.9143,0,0,0,0,0,0,0,0,0,0,0,0,0,0.9148,0.9149,0.9194,0.9194,0.9194,0.9195,0.9195,0.9195,0.9142,0.914,0.9139,0.9137,0.914,0.9141,0.9143,0,0,0,0,0,0,0,0,0,0,0,0,0,0.916,0.915,0.9194,0.9168,0.9166,0.9195,0.9195,0.9195,0.9142,0.914,0.9138,0.9136,0.9139,0.9141,0.9143,0.9198,0,0,0.9149,0.915,0,0,0,0,0,0,0,0,0.916,0.9162,0.9172,0.917,0.9167,0.9166,0.9179,0.9196,0.9143,0.9151,0.9138,0.9135,0.915,0.9151,0.9156,0.9198,0.9198,0.9149,0.9151,0.9152,0.9152,0,0,0,0,0,0,0,0.9159,0.9162,0.9194,0.9172,0.9169,0.9156,0.9156,0.9182,0.9163,0.915,0.9147,0.9147,0.9149,0.9154,0.9156,0.9198,0.9149,0.9151,0.9152,0.9153,0.9283,0.9285,0,0,0,0,0,0,0.9162,0.9162,0.9194,0.9194,0.9158,0.9159,0.9158,0.9169,0.9162,0.9159,0.9149,0.9145,0.9152,0.9154,0.9156,0.9218,0.9152,0.9153,0.9155,0.9281,0.9284,0.9286,0,0,0,0,0,0,0.9161,0.9165,0.9194,0.9177,0.918,0.9162,0.9174,0.917,0.9175,0.9161,0.9158,0.9158,0.915,0.9153,0.9187,0.9218,0.9154,0.9156,0.9278,0.9282,0.9285,0.9345,0,0,0,0,0,0,0.916,0.9165,0.9186,0.9178,0.9181,0.9226,0.9176,0.9171,0.9179,0.9173,0.9169,0.9166,0.9149,0.9184,0.9189,0.9219,0.9158,0.9275,0.928,0.9284,0.934,0.935,0.9358,0,0,0,0,0,0.9158,0.9203,0.9187,0.9191,0.9206,0.9228,0.923,0.9208,0.9181,0.9202,0.9193,0.9166,0.9214,0.9188,0.9193,0.9225,0.9273,0.9279,0.9283,0.9336,0.9348,0.9358,0,0,0,0,0,0,0.9216,0.9202,0.9184,0.9227,0.9229,0.9219,0.9244,0.9222,0.9232,0.9226,0.92,0.9199,0.9238,0.9235,0.9207,0.9277,0.9239,0.9245,0.9277,0.9288,0.9297,0.9297,0.916,0,0,0,0,0,0.9234,0.9253,0.9239,0.9279,0.9281,0.9262,0.9271,0.9254,0.9255,0.9256,0.9249,0.9252,0.9267,0.9277,0.9291,0.9339,0.9337,0.9363,0.9372,0.938,0.9385,0.941,0.9421,0.9302,0.9302,0.9302,0,0,0.9271,0.9266,0.9279,0.929,0.929,0.9309,0.9263,0.9287,0.9301,0.926,0.9291,0.9286,0.9287,0.9329,0.9347,0.9327,0.9418,0.9386,0.9392,0.9394,0.9416,0.9427,0.9437,0.9306,0.9305,0.9305,0,0,0.9349,0.9347,0.9379,0.9379,0.9378,0.9365,0.9373,0.9366,0.9361,0.9392,0.9361,0.9378,0.9405,0.9406,0.9411,0.9487,0.9463,0.9492,0.9539,0.9564,0.9573,0.9581,0.9607,0.9617,0.9498,0.9498,0.9498,0,0.9395,0.9423,0.9399,0.9423,0.9429,0.9391,0.9423,0.9425,0.9429,0.9434,0.9412,0.9444,0.9442,0.9483,0.9501,0.9506,0.9514,0.9493,0.9573,0.9581,0.9588,0.9613,0.9624,0.9502,0.9501,0.9501,0.9501,0,0.948,0.9499,0.9526,0.9529,0.9538,0.9566,0.9546,0.9558,0.954,0.953,0.9561,0.9557,0.9569,0.9577,0.9561,0.9615,0.9603,0.9578,0.9539,0.9604,0.9627,0.9636,0.9507,0.9505,0.9504,0.9503,0,0,0.9594,0.9583,0.9593,0.9593,0.9589,0.9604,0.963,0.964,0.9651,0.9655,0.9676,0.9699,0.9675,0.968,0.9663,0.9684,0.9744,0.9656,0.9656,0.9672,0.9803,0.9821,0.9833,0.9728,0.973,0.9731,0.9802,0,0.9668,0.9712,0.969,0.9737,0.9754,0.9719,0.9742,0.9742,0.9732,0.9746,0.9736,0.9752,0.972,0.9723,0.9742,0.9733,0.977,0.9727,0.9747,0.9748,0.9748,0.9845,0.9865,0.9932,0.9811,0.9813,0.9814,0,0.9761,0.9767,0.9815,0.9806,0.9813,0.9834,0.9841,0.9854,0.9853,0.9845,0.985,0.9828,0.9853,0.9815,0.9849,0.9821,0.9828,0.9824,0.9826,0.9827,0.9785,0.9847,0.9953,0.9963,0.9828,0.9827,0.9826,0,0.9838,0.9859,0.989,0.9892,0.9883,0.9898,0.9895,0.9892,0.9899,0.9905,0.9909,0.9919,0.9924,0.9932,0.9913,0.9887,0.9949,0.991,0.9943,0.9943,0.9957,0.9957,1.0065,0.9963,0.9963,0.9963,0.9963,0,0.9923,0.9954,0.9924,0.9944,0.9977,0.9951,0.9985,0.9978,0.9975,0.9992,0.9962,0.9979,0.9953,0.9967,0.9953,0.9983,0.9986,0.9979,0.9975,0.9982,0.9982,0.9986,0.998,0.9965,0.9965,0.9964,0.9964,0,1.0015,0.9997,1.0028,1.0016,1.0014,1.0039,1.0029,1.0046,1.0034,1.0056,1.006,1.0042,1.0057,1.0039,1.0053,1.0043,1.0083,1.0072,1.0083,1.008,1.0113,1.011,1.0227,1.0241,1.0131,1.0132,1.0133,0,1.007,1.0092,1.0083,1.0091,1.009,1.0105,1.0111,1.0087,1.0095,1.0095,1.0112,1.0124,1.0133,1.0159,1.0147,1.0157,1.0146,1.0186,1.0147,1.0153,1.0145,1.0144,1.0146,1.0194,1.0195,1.0196,1.0197,0,1.0169,1.0158,1.0169,1.0176,1.0184,1.0189,1.0191,1.02,1.0175,1.0186,1.02,1.0207,1.022,1.0232,1.0239,1.0236,1.0213,1.021,1.0218,1.0224,1.0229,1.0226,1.0104,1.0207,1.0206,1.0205,1.0205,1.0204,1.0243,1.0261,1.0256,1.0269,1.0268,1.027,1.0285,1.0275,1.0286,1.0295,1.028,1.0298,1.0296,1.0302,1.0302,1.0316,1.0298,1.031,1.0313,1.0316,1.0321,1.0228,1.0317,1.0317,1.0316,1.0316,1.0316,0,1.034,1.0335,1.0346,1.035,1.0359,1.0335,1.0337,1.0346,1.0362,1.0362,1.037,1.0386,1.0398,1.0387,1.0397,1.041,1.0399,1.0413,1.0412,1.0411,1.0336,1.0328,1.0421,1.0421,1.0421,1.0421,1.0421,1.0421,1.0391,1.0419,1.0408,1.0436,1.043,1.0447,1.045,1.0452,1.0451,1.047,1.0479,1.0472,1.0467,1.0476,1.0485,1.0482,1.0486,1.0504,1.0497,1.0427,1.0417,1.0407,1.0399,1.0505,1.0505,1.057,1.0571,1.0571]}]]